Location: Newark
(48.3831°N, 4.1956°E)
Time: 16:35:43
(UTC+00:00)

Envisat - Pass Details

Date: 20 November 2019
Orbit: 764 x 766 km, 98.1° (Epoch: 06 December)

Event Time Altitude Azimuth Distance (km) Brightness Sun altitude
Rises 16:40:00 0° 137° (SE) 3,223 6.0 -6.9°
Reaches altitude 10° 16:42:28 10° 128° (SE) 2,301 5.2 -7.3°
Maximum altitude 16:47:00 34° 65° (ENE) 1,252 3.6 -8.0°
Drops below altitude 10° 16:51:32 10° 2° (N) 2,314 5.3 -8.7°
Sets 16:54:01 0° 354° (N) 3,244 6.1 -9.1°
